Weather in Smetanino

Russia / Smolensk Oblast     54°47′02″N   31°38′10″E
temp.,
°C
wind,
m/s
gust,
m/s
humid.,
%
clouds,
%
prec.,
mm/h
press.,
hPa
HPBL,
m
8 may, sat
sat800:00+7sse6129298 2.8 1006643
03:00+6s3797100 2.9 1005270
06:00+6w2798100 0.0 1005313
09:00+6nw5687100 0.0 1006642
12:00+6nnw6983100 0.0 1007762
15:00+10nnw6855100 0.1 10071778
18:00+7nw81070100 0.1 10081155
21:00+5nw6127398 0.2 1011710
9 may, sun
sun900:00+2wnw4108380 0.0 1013270
03:00+1wnw512875 0.0 1015432
06:00+1wnw511875 0.0 1018393
09:00+6nw69624 0.0 10201083
12:00+9nw684763 0.0 10212113
15:00+11nw674286 0.0 10222322
18:00+11wnw46545 0.0 10231467
21:00+6w22655 0.0 102616
10 may, mon
mon1000:00+4ssw22675 0.0 102716
03:00+3ssw34665 0.0 102865
06:00+3s377244 0.0 1029134
09:00+10ssw476310 0.0 1029404
12:00+14ssw555499 0.0 10291220
15:00+15ssw44526 0.0 10281376
18:00+15ssw34601 0.0 10281230
21:00+10sse33774 0.0 102932
11 may, tue
tue1100:00+8s227740 0.0 103019
03:00+7sse338053 0.0 103032
06:00+7se3381100 0.0 103058
09:00+12se3465100 0.0 1030330
12:00+16ese455372 0.0 1029981
15:00+18ese455365 0.0 10281255
18:00+17ese466289 0.0 1026997
21:00+11ese46788 0.0 102672
12 may, wed
wed1200:00+9ese48805 0.0 1026128
03:00+8ese35850 0.0 102687
06:00+8ene37850 0.0 1025134
09:00+14e610670 0.0 1024494
12:00+17e7106370 0.0 10231178
15:00+14ese5108233 0.1 1023813
18:00+16e46695 0.1 10221170
21:00+12e511895 0.1 1022326